TITAN 3C TRANSTAGE DEB, 27865

Orbit data source: Space-Track

TITAN 3C TRANSTAGE DEB, 27865 is space debris in HEO originally from a launch on Tue, 21 Dec 1965 UTC launched from the Air Force Eastern Test Range (AFETR). Debris objects in space refer to the collection of defunct objects orbiting the Earth. Examples of debris include non-operational satellites, rocket bodies, and fragments generated from explosions, collisions, or faulty payload assembly.

Loading next visibility...
Identifier
27865, 1965-108BL
Orbit
HEO
Country
Flag of USUS
Related business
Manufacturer
Unknown
Mission
Spacecraft
Bus & Motor
Unknown
Mass
Unknown
Launch date (UTC)
1965-12-21 (60 years ago)
Launch vehicle
Unknown
Launch site
Air Force Eastern Test Range (AFETR)
Object type
Payload
Rocket body
Debris
Shape & HBR
Unknown shape, 0.1 m
Radar Cross Section
Small (<0.1 m²)

Expand to show TLE details & history
Last TLE update: 9 months ago

TLE from 9 months ago
0 TITAN 3C TRANSTAGE DEB
1 27865U 65108BL  25226.19614346  .00000060  00000-0  73889-2 0  9992
2 27865  26.8929 285.2281 6729487 233.3292  88.9066  2.60314498221370
Epoch: 2025-08-14T04:42Z
TLE epoch observation values (Epoch: 2025-08-14T04:42:26.794Z)
Latitude
11.28375°
Longitude
-85.07651°
Altitude
23,857.029 km
Speed
2.917 km/s
True Right ascension
20h 33m 35s
True Declination
11° 16' 06"
Sunlit
Object was in daylight at epoch
Visualization orbit readout
Latitude
Unknown
Longitude
Unknown
Altitude
Unknown
Speed
Unknown
Apparent Right ascension
Unknown
Apparent Declination
Unknown
Sunlit
N/A
Visualization observer readout
Local Sidereal Time
03:57:35
Azimuth
Unknown
Elevation
Unknown
Doppler factor
Unknown
Orbital elements
Apogee altitude
30,971.372 km
Perigee altitude
923.465 km
Semi-major axis
22,325.556 km
Eccentricity
0.67295
Inclination
26.8929°
RAAN
285.2281°
Arg. of periapsis
233.3292°
True anomaly
152.29895°
Mean anomaly
88.9066°
Eccentric anomaly
121.70844°
Mean motion
0.65064 °/min
Orbital period
553.3 mins
BSTAR
0.0073889
Loading maneuver chart data...
Computing Atmospheric mass density...

Documentation

Showing up to 5 results
|